FW6766 Weather Reports


Display with metric or nautical units.
time (UTC)temp
F
wind
direction
speed
MPH
gust
MPH
rain 1hr
in
rain 24hr
in
rain mn
in
humidity
%
barometer
mb
20260904205515 93 0.0 0.0 0.00 0.00 0.00 50 1016.3
20260904204516 94 0.0 2.0 0.00 0.00 0.00 49 1016.4
20260904203516 93 0.0 2.0 0.00 0.00 0.00 50 1016.6
20260904202516 94 0.0 3.0 0.00 0.00 0.00 50 1016.7
20260904201516 94 0.0 2.0 0.00 0.00 0.00 51 1016.8
20260904200515 94 0.0 2.0 0.00 0.00 0.00 52 1016.9
20260904195515 95 0 1.0 3.0 0.00 0.00 0.00 47 1017.2
20260904194515 95 45 1.0 3.0 0.00 0.00 0.00 50 1017.3
20260904193535 95 0.0 0.0 0.00 0.00 0.00 48 1017.5
20260904192535 95 0.0 2.0 0.00 0.00 0.00 49 1017.7
20260904191515 94 0.0 1.0 0.00 0.00 0.00 51 1017.9
20260904190517 93 0.0 2.0 0.00 0.00 0.00 52 1017.9
20260904185538 94 0.0 1.0 0.00 0.00 0.00 54 1018.2
20260904184517 95 0.0 2.0 0.00 0.00 0.00 52 1018.2
20260904183517 94 0.0 2.0 0.00 0.00 0.00 55 1018.6
20260904182517 94 90 1.0 4.0 0.00 0.00 0.00 54 1018.6
20260904181537 93 180 1.0 4.0 0.00 0.00 0.00 54 1018.6
20260904180518 92 0.0 3.0 0.00 0.00 0.00 58 1018.8
20260904175518 92 90 1.0 2.0 0.00 0.00 0.00 60 1018.9
20260904174517 93 23 1.0 5.0 0.00 0.00 0.00 54 1018.9
20260904173517 93 0.0 1.0 0.00 0.00 0.00 56 1019.1
20260904172517 93 0 1.0 5.0 0.00 0.00 0.00 58 1019.2
20260904171517 94 0.0 1.0 0.00 0.00 0.00 56 1019.3
20260904170517 93 0.0 1.0 0.00 0.00 0.00 57 1019.5
20260904165517 92 0.0 1.0 0.00 0.00 0.00 62 1019.6
20260904164538 92 203 1.0 2.0 0.00 0.00 0.00 60 1019.9
20260904163517 91 0.0 2.0 0.00 0.00 0.00 67 1019.9
20260904162517 90 0.0 0.0 0.00 0.00 0.00 61 1020.0
20260904161517 89 0.0 0.0 0.00 0.00 0.00 65 1019.9
20260904160517 89 90 1.0 3.0 0.00 0.00 0.00 63 1020.0
20260904155517 88 0.0 1.0 0.00 0.00 0.00 66 1020.0
20260904154517 87 0.0 1.0 0.00 0.00 0.00 68 1020.0
20260904153517 85 23 1.0 5.0 0.00 0.00 0.00 72 1020.0
20260904152618 84 0.0 3.0 0.00 0.00 0.00 74 1019.9
20260904151517 83 225 1.0 3.0 0.00 0.00 0.00 75 1019.9
20260904150517 82 0.0 3.0 0.00 0.00 0.00 77 1019.8
20260904144517 81 0.0 2.0 0.00 0.00 0.00 81 1019.8
20260904143517 80 203 1.0 4.0 0.00 0.00 0.00 82 1019.7
20260904142517 79 0.0 1.0 0.00 0.00 0.00 84 1019.8
20260904141517 78 0.0 0.0 0.00 0.00 0.00 86 1019.7
20260904140517 78 0.0 0.0 0.00 0.00 0.00 87 1019.6
20260904135517 77 0.0 0.0 0.00 0.00 0.00 88 1019.5
20260904134537 76 0.0 0.0 0.00 0.00 0.00 90 1019.4
20260904133516 76 0.0 0.0 0.00 0.00 0.00 91 1019.3
20260904132516 75 0.0 0.0 0.00 0.00 0.00 93 1019.3
20260904131517 75 0.0 1.0 0.00 0.00 0.00 92 1019.5
20260904130516 74 0.0 0.0 0.00 0.00 0.00 95 1019.5
20260904125516 74 0.0 0.0 0.00 0.00 0.00 96 1019.2
20260904124516 74 0.0 0.0 0.00 0.00 0.00 96 1019.3
20260904123516 73 0.0 0.0 0.00 0.00 0.00 96 1019.2
20260904122516 73 0.0 0.0 0.00 0.00 0.00 96 1019.3
20260904121516 72 0.0 0.0 0.00 0.00 0.00 95 1019.4
20260904120516 72 0.0 0.0 0.00 0.00 0.00 96 1019.2
20260904115537 71 0.0 0.0 0.00 0.00 0.00 95 1019.0
20260904114516 71 0.0 0.0 0.00 0.00 0.00 94 1019.2
20260904113516 71 0.0 0.0 0.00 0.00 0.00 94 1019.1
20260904112516 71 0.0 0.0 0.00 0.00 0.00 94 1019.0
20260904111516 71 0.0 0.0 0.00 0.00 0.00 94 1019.1
20260904110516 71 0.0 0.0 0.00 0.00 0.00 94 1019.0
20260904105517 71 0.0 0.0 0.00 0.00 0.00 94 1018.9
20260904104516 72 0.0 0.0 0.00 0.00 0.00 94 1019.1
20260904103516 72 0.0 0.0 0.00 0.00 0.00 94 1019.1
20260904102516 72 0.0 0.0 0.00 0.00 0.00 94 1018.9
20260904101516 72 0.0 0.0 0.00 0.00 0.00 94 1019.0
20260904100516 72 0.0 0.0 0.00 0.00 0.00 94 1019.0
20260904095517 72 0.0 0.0 0.00 0.00 0.00 94 1018.9
20260904094516 72 0.0 0.0 0.00 0.00 0.00 93 1018.8
20260904093516 72 0.0 0.0 0.00 0.00 0.00 93 1018.5
20260904092516 72 0.0 0.0 0.00 0.00 0.00 93 1018.5
20260904091536 72 0.0 0.0 0.00 0.00 0.00 93 1018.6
20260904090516 72 0.0 0.0 0.00 0.00 0.00 93 1018.6
20260904085516 72 0.0 0.0 0.00 0.00 0.00 93 1018.5
20260904084517 73 0.0 0.0 0.00 0.00 0.00 93 1018.7
20260904083515 73 0.0 0.0 0.00 0.00 0.00 93 1018.6
20260904082516 73 0.0 0.0 0.00 0.00 0.00 93 1018.5
20260904081516 73 0.0 0.0 0.00 0.00 0.00 93 1018.4
20260904080516 73 0.0 0.0 0.00 0.00 0.00 93 1018.2
20260904075515 73 0.0 0.0 0.00 0.00 0.00 92 1018.3
20260904074516 73 0.0 0.0 0.00 0.00 0.00 92 1018.3
20260904073516 73 0.0 0.0 0.00 0.00 0.00 92 1018.4
20260904072515 73 0.0 0.0 0.00 0.00 0.00 92 1018.3
20260904071516 74 0.0 0.0 0.00 0.00 0.00 92 1018.4
20260904070515 74 0.0 0.0 0.00 0.00 0.00 92 1018.3
20260904065517 74 0.0 0.0 0.00 0.00 0.00 91 1018.2
20260904064517 74 0.0 0.0 0.00 0.00 0.00 91 1018.3
20260904063517 74 0.0 0.0 0.00 0.00 0.00 91 1018.4
20260904062518 74 0.0 0.0 0.00 0.00 0.00 91 1018.4
20260904061517 74 0.0 0.0 0.00 0.00 0.00 91 1018.4
20260904060517 74 0.0 0.0 0.00 0.00 0.00 90 1018.4
20260904055517 75 0.0 0.0 0.00 0.00 0.00 90 1018.6
20260904054517 75 0.0 0.0 0.00 0.00 0.00 89 1018.6
20260904053537 75 0.0 0.0 0.00 0.00 0.00 89 1018.5
20260904052517 75 0.0 0.0 0.00 0.00 0.00 89 1018.5
20260904051518 75 0.0 0.0 0.00 0.00 0.00 90 1018.6
20260904050517 75 0.0 0.0 0.00 0.00 0.00 90 1018.7
20260904045517 75 0.0 0.0 0.00 0.00 0.00 90 1018.7
20260904044517 75 0.0 0.0 0.00 0.00 0.00 90 1018.9
20260904043517 75 0.0 0.0 0.00 0.00 0.00 89 1018.9
20260904042517 75 0.0 0.0 0.00 0.00 0.00 89 1018.8
20260904041537 75 0.0 0.0 0.00 0.00 0.00 89 1018.7
20260904040517 76 0.0 0.0 0.00 0.00 0.00 89 1018.7
20260904035537 76 0.0 0.0 0.00 0.00 0.00 88 1018.8
20260904034517 76 0.0 0.0 0.00 0.00 0.00 88 1018.7
20260904033537 76 0.0 0.0 0.00 0.00 0.00 88 1018.8
20260904032517 76 0.0 0.0 0.00 0.00 0.00 87 1018.7
20260904031517 76 0.0 0.0 0.00 0.00 0.00 87 1018.7
20260904030518 76 0.0 0.0 0.00 0.00 0.00 87 1018.7
20260904025517 77 0.0 0.0 0.00 0.00 0.00 86 1018.8
20260904024517 77 0.0 0.0 0.00 0.00 0.00 85 1018.6
20260904023517 77 0.0 0.0 0.00 0.00 0.00 84 1018.6
20260904022517 77 0.0 0.0 0.00 0.00 0.00 84 1018.5
20260904021517 77 0.0 0.0 0.00 0.00 0.00 83 1018.3
20260904020517 78 0.0 0.0 0.00 0.00 0.00 83 1018.4
20260904015537 78 0.0 0.0 0.00 0.00 0.00 83 1018.3
20260904014517 78 0.0 0.0 0.00 0.00 0.00 82 1018.1
20260904013537 78 0.0 0.0 0.00 0.00 0.00 82 1018.2
20260904012517 79 0.0 0.0 0.00 0.00 0.00 81 1018.2
20260904011517 79 0.0 0.0 0.00 0.00 0.00 80 1018.0
20260904010536 79 0.0 0.0 0.00 0.00 0.00 79 1017.9
20260904005517 79 0.0 2.0 0.00 0.00 0.00 79 1017.7
20260904004517 80 0.0 0.0 0.00 0.00 0.00 78 1017.4
20260904003516 81 0.0 1.0 0.00 0.00 0.00 76 1017.5
20260904002516 81 0.0 0.0 0.00 0.00 0.00 74 1017.3
20260904001517 82 0.0 0.0 0.00 0.00 0.00 73 1017.2
20260904000517 83 0.0 1.0 0.00 0.00 0.00 72 1017.1
20260903235516 83 0.0 2.0 0.00 0.00 0.00 70 1017.1
20260903234518 84 203 2.0 5.0 0.00 0.00 0.00 68 1017.4
20260903233516 85 203 2.0 3.0 0.00 0.00 0.00 67 1017.4
20260903232516 86 203 3.0 8.0 0.00 0.00 0.00 64 1017.5
20260903231516 87 203 3.0 8.0 0.00 0.00 0.00 62 1017.5
20260903230536 88 203 1.0 7.0 0.00 0.00 0.00 60 1016.9
20260903225516 89 0.0 0.0 0.00 0.00 0.00 59 1016.9
20260903224516 89 0.0 2.0 0.00 0.00 0.00 60 1016.9
20260903223517 91 0.0 0.0 0.00 0.00 0.00 57 1016.9
20260903222516 92 0.0 1.0 0.00 0.00 0.00 56 1016.9
20260903221516 93 0.0 2.0 0.00 0.00 0.00 55 1016.9
20260903220536 93 0.0 1.0 0.00 0.00 0.00 55 1016.8
20260903215516 94 0.0 2.0 0.00 0.00 0.00 55 1016.9
20260903214516 94 0.0 1.0 0.00 0.00 0.00 52 1016.7
20260903213516 93 0.0 1.0 0.00 0.00 0.00 50 1016.7
20260903212516 93 0.0 2.0 0.00 0.00 0.00 53 1016.9
20260903211537 92 0.0 0.0 0.00 0.00 0.00 53 1016.9
20260903210516 93 0.0 1.0 0.00 0.00 0.00 55 1017.1